,,,PA_Meas_PMT16A,,PR_Meas_QMR101_102,,RH_Meas_QMH101,,SR_Meas_QMS101,,TA_Meas_QMH101,,GenWind,,GenWind,
date,time,status,PA,status,PR,status,RH,status,SR,status,TA,status,DirAvg,status,SpdAvg,
2009-08-28, 00:00:04,VALID,1003.59,VALID,0,VALID,94.3692,VALID,0,VALID,23.8593,VALID,352,VALID,0,
2009-08-28, 00:01:04,VALID,1003.59,VALID,0,VALID,94.4074,VALID,0,VALID,23.8593,VALID,352,VALID,0,
2009-08-28, 00:02:04,VALID,1003.57,VALID,0,VALID,94.3921,VALID,0,VALID,23.8787,VALID,352,VALID,0,
2009-08-28, 00:03:04,VALID,1003.54,VALID,0,VALID,94.3921,VALID,0,VALID,23.838,VALID,352,VALID,0,
2009-08-28, 00:04:04,VALID,1003.53,VALID,0,VALID,94.3921,VALID,0,VALID,23.838,VALID,352,VALID,0,
2009-08-28, 00:05:04,VALID,1003.51,VALID,0,VALID,94.4074,VALID,0,VALID,23.8575,VALID,352,VALID,0,
2009-08-28, 00:06:04,VALID,1003.48,VALID,0,VALID,94.415,VALID,0,VALID,23.8982,VALID,352,VALID,0,
2009-08-28, 00:07:04,VALID,1003.48,VALID,0,VALID,94.3692,VALID,0,VALID,23.8787,VALID,352,VALID,0,
2009-08-28, 00:08:04,VALID,1003.48,VALID,0,VALID,94.3311,VALID,0,VALID,23.8787,VALID,352,VALID,0,
2009-08-28, 00:09:04,VALID,1003.46,VALID,0,VALID,94.3082,VALID,0,VALID,23.8787,VALID,352,VALID,0,
2009-08-28, 00:10:04,VALID,1003.44,VALID,0,VALID,94.3235,VALID,0,VALID,23.8575,VALID,352,VALID,0.00742187,
2009-08-28, 00:11:04,VALID,1003.46,VALID,0,VALID,94.2777,VALID,0,VALID,23.8593,VALID,350,VALID,0.586328,
2009-08-28, 00:12:04,VALID,1003.46,VALID,0,VALID,94.2319,VALID,0,VALID,23.8593,VALID,350,VALID,0.533984,
2009-08-28, 00:13:04,VALID,1003.49,VALID,0,VALID,94.2701,VALID,0,VALID,23.8593,VALID,350,VALID,0.359375,
2009-08-28, 00:14:04,VALID,1003.46,VALID,0,VALID,94.3006,VALID,0,VALID,23.8787,VALID,350,VALID,0.589453,
2009-08-28, 00:15:04,VALID,1003.43,VALID,0,VALID,94.3082,VALID,0,VALID,23.8575,VALID,349,VALID,0.444922,
2009-08-28, 00:16:04,VALID,1003.45,VALID,0,VALID,94.3464,VALID,0,VALID,23.9177,VALID,349,VALID,0.458984,
2009-08-28, 00:17:04,VALID,1003.44,VALID,0,VALID,94.3464,VALID,0,VALID,23.9371,VALID,349,VALID,0.534766,
2009-08-28, 00:18:04,VALID,1003.39,VALID,0,VALID,94.3158,VALID,0,VALID,23.9548,VALID,350,VALID,0.503516,
2009-08-28, 00:19:04,VALID,1003.39,VALID,0,VALID,94.2701,VALID,0,VALID,23.9955,VALID,350,VALID,0.485156,
2009-08-28, 00:20:04,VALID,1003.38,VALID,0,VALID,94.1633,VALID,0,VALID,23.9955,VALID,345,VALID,0.676562,
2009-08-28, 00:21:04,VALID,1003.36,VALID,0,VALID,94.0794,VALID,0,VALID,23.9742,VALID,345,VALID,0.435937,
2009-08-28, 00:22:04,VALID,1003.37,VALID,0,VALID,94.0336,VALID,0,VALID,23.9955,VALID,345,VALID,0.121094,
2009-08-28, 00:23:04,VALID,1003.34,VALID,0,VALID,93.9954,VALID,0,VALID,24.015,VALID,351,VALID,0.714453,
2009-08-28, 00:24:04,VALID,1003.34,VALID,0,VALID,93.9954,VALID,0,VALID,24.0734,VALID,350,VALID,0.531641,
2009-08-28, 00:25:04,VALID,1003.35,VALID,0,VALID,93.881,VALID,0,VALID,24.1318,VALID,352,VALID,0.330078,
2009-08-28, 00:26:04,VALID,1003.33,VALID,0,VALID,93.6292,VALID,0,VALID,24.1494,VALID,351,VALID,0.20625,
2009-08-28, 00:27:04,VALID,1003.3,VALID,0,VALID,93.347,VALID,0,VALID,24.2486,VALID,351,VALID,0.248437,
2009-08-28, 00:28:04,VALID,1003.32,VALID,0,VALID,93.0342,VALID,0,VALID,24.3088,VALID,349,VALID,0.894531,
2009-08-28, 00:29:04,VALID,1003.29,VALID,0,VALID,92.6299,VALID,0,VALID,24.3459,VALID,341,VALID,0.670703,
2009-08-28, 00:30:04,VALID,1003.26,VALID,0,VALID,92.0806,VALID,0,VALID,24.4433,VALID,354,VALID,0.687891,
2009-08-28, 00:31:04,VALID,1003.24,VALID,0,VALID,91.5237,VALID,0,VALID,24.5212,VALID,3,VALID,0.516797,
2009-08-28, 00:32:04,VALID,1003.27,VALID,0,VALID,90.982,VALID,0,VALID,24.5796,VALID,3,VALID,0.175781,
2009-08-28, 00:33:04,VALID,1003.24,VALID,0,VALID,90.6387,VALID,0,VALID,24.599,VALID,3,VALID,0.523047,
2009-08-28, 00:34:04,VALID,1003.21,VALID,0,VALID,90.4175,VALID,0,VALID,24.5972,VALID,333,VALID,0.471484,
2009-08-28, 00:35:04,VALID,1003.23,VALID,0,VALID,90.3031,VALID,0,VALID,24.6185,VALID,333,VALID,0.359375,
2009-08-28, 00:36:04,VALID,1003.21,VALID,0,VALID,90.2115,VALID,0,VALID,24.5777,VALID,342,VALID,0,
2009-08-28, 00:37:04,VALID,1003.21,VALID,0,VALID,90.2039,VALID,0,VALID,24.5582,VALID,342,VALID,0,
2009-08-28, 00:38:04,VALID,1003.2,VALID,0,VALID,90.2497,VALID,0,VALID,24.5406,VALID,342,VALID,0.270703,
2009-08-28, 00:39:04,VALID,1003.19,VALID,0,VALID,90.1505,VALID,0,VALID,24.5601,VALID,3,VALID,0.236719,
2009-08-28, 00:40:04,VALID,1003.21,VALID,0,VALID,89.9598,VALID,0,VALID,24.6185,VALID,3,VALID,0.635938,
2009-08-28, 00:41:04,VALID,1003.17,VALID,0,VALID,89.7233,VALID,0,VALID,24.638,VALID,360,VALID,0.505078,
2009-08-28, 00:42:04,VALID,1003.19,VALID,0,VALID,89.6699,VALID,0,VALID,24.6769,VALID,360,VALID,0.560156,
2009-08-28, 00:43:04,VALID,1003.16,VALID,0,VALID,89.6927,VALID,0,VALID,24.6185,VALID,360,VALID,0.483203,
2009-08-28, 00:44:04,VALID,1003.17,VALID,0,VALID,89.9216,VALID,0,VALID,24.5601,VALID,360,VALID,0.2625,
2009-08-28, 00:45:04,VALID,1003.18,VALID,0,VALID,90.0666,VALID,0,VALID,24.4998,VALID,360,VALID,0,
2009-08-28, 00:46:04,VALID,1003.14,VALID,0,VALID,90.1429,VALID,0,VALID,24.5017,VALID,360,VALID,0,
2009-08-28, 00:47:04,VALID,1003.12,VALID,0,VALID,90.1505,VALID,0,VALID,24.5212,VALID,360,VALID,0,
2009-08-28, 00:48:04,VALID,1003.12,VALID,0,VALID,90.1505,VALID,0,VALID,24.4822,VALID,360,VALID,0,
2009-08-28, 00:49:04,VALID,1003.07,VALID,0,VALID,90.2115,VALID,0,VALID,24.4822,VALID,360,VALID,0,
2009-08-28, 00:50:04,VALID,1003.06,VALID,0,VALID,90.0666,VALID,0,VALID,24.4822,VALID,360,VALID,0,
2009-08-28, 00:51:04,VALID,1003.05,VALID,0,VALID,89.9979,VALID,0,VALID,24.4609,VALID,360,VALID,0,
2009-08-28, 00:52:04,VALID,1003.04,VALID,0,VALID,90.0742,VALID,0,VALID,24.4628,VALID,351,VALID,0,
2009-08-28, 00:53:04,VALID,1003.04,VALID,0,VALID,90.0666,VALID,0,VALID,24.4822,VALID,295,VALID,0,
2009-08-28, 00:54:04,VALID,1003.01,VALID,0,VALID,89.9674,VALID,0,VALID,24.5017,VALID,342,VALID,0.601563,
2009-08-28, 00:55:04,VALID,1003.02,VALID,0,VALID,89.9216,VALID,0,VALID,24.5017,VALID,336,VALID,0.285156,
2009-08-28, 00:56:04,VALID,1002.96,VALID,0,VALID,90.0132,VALID,0,VALID,24.4628,VALID,341,VALID,0.477734,
2009-08-28, 00:57:04,VALID,1002.96,VALID,0,VALID,90.0666,VALID,0,VALID,24.4628,VALID,341,VALID,0.696875,
2009-08-28, 00:58:04,VALID,1002.94,VALID,0,VALID,90.0666,VALID,0,VALID,24.4414,VALID,343,VALID,0.567578,
2009-08-28, 00:59:04,VALID,1002.91,VALID,0,VALID,89.9979,VALID,0,VALID,24.4628,VALID,343,VALID,0.436719,
2009-08-28, 01:00:04,VALID,1002.88,VALID,0,VALID,89.8835,VALID,0,VALID,24.4628,VALID,343,VALID,0.275,
2009-08-28, 01:01:04,VALID,1002.81,VALID,0,VALID,89.9216,VALID,0,VALID,24.4043,VALID,343,VALID,0.321875,
2009-08-28, 01:02:04,VALID,1002.79,VALID,0,VALID,90.2725,VALID,0,VALID,24.3441,VALID,343,VALID,0.461719,
2009-08-28, 01:03:04,VALID,1002.74,VALID,0,VALID,90.6006,VALID,0,VALID,24.3265,VALID,346,VALID,0.553125,
2009-08-28, 01:04:04,VALID,1002.7,VALID,0,VALID,90.6311,VALID,0,VALID,24.3265,VALID,353,VALID,0.377344,
2009-08-28, 01:05:04,VALID,1002.65,VALID,0,VALID,90.7303,VALID,0,VALID,24.2875,VALID,353,VALID,0.392188,
2009-08-28, 01:06:04,VALID,1002.66,VALID,0,VALID,90.9134,VALID,0,VALID,24.2097,VALID,353,VALID,0.409766,
2009-08-28, 01:07:04,VALID,1002.62,VALID,0,VALID,91.0736,VALID,0,VALID,24.1689,VALID,353,VALID,0.328906,
2009-08-28, 01:08:04,VALID,1002.63,VALID,0,VALID,91.1804,VALID,0,VALID,24.1318,VALID,353,VALID,0.351953,
2009-08-28, 01:09:04,VALID,1002.62,VALID,0,VALID,91.3635,VALID,0,VALID,24.0929,VALID,353,VALID,0.395703,
2009-08-28, 01:10:04,VALID,1002.65,VALID,0,VALID,91.5084,VALID,0,VALID,24.0734,VALID,353,VALID,0.111328,
2009-08-28, 01:11:04,VALID,1002.66,VALID,0,VALID,91.6534,VALID,0,VALID,24.0326,VALID,353,VALID,0.0664063,
2009-08-28, 01:12:04,VALID,1002.69,VALID,0,VALID,91.6839,VALID,0,VALID,24.0345,VALID,354,VALID,0,
2009-08-28, 01:13:04,VALID,1002.67,VALID,0,VALID,91.8594,VALID,0,VALID,24.015,VALID,354,VALID,0,
2009-08-28, 01:14:04,VALID,1002.68,VALID,0,VALID,91.9662,VALID,0,VALID,24.015,VALID,354,VALID,0,
2009-08-28, 01:15:04,VALID,1002.68,VALID,0,VALID,92.0348,VALID,0,VALID,24.0345,VALID,354,VALID,0,
2009-08-28, 01:16:04,VALID,1002.65,VALID,0,VALID,92.0958,VALID,0,VALID,23.9937,VALID,354,VALID,0,
2009-08-28, 01:17:04,VALID,1002.67,VALID,0,VALID,92.1416,VALID,0,VALID,24.015,VALID,354,VALID,0,
2009-08-28, 01:18:04,VALID,1002.63,VALID,0,VALID,92.2179,VALID,0,VALID,23.9761,VALID,354,VALID,0,
2009-08-28, 01:19:04,VALID,1002.61,VALID,0,VALID,92.2713,VALID,0,VALID,23.9548,VALID,354,VALID,0,
2009-08-28, 01:20:04,VALID,1002.59,VALID,0,VALID,92.1492,VALID,0,VALID,23.9548,VALID,354,VALID,0,
2009-08-28, 01:21:04,VALID,1002.59,VALID,0,VALID,92.1416,VALID,0,VALID,23.9761,VALID,3,VALID,0.346875,
2009-08-28, 01:22:04,VALID,1002.55,VALID,0,VALID,92.1035,VALID,0,VALID,23.9159,VALID,11,VALID,0.704687,
2009-08-28, 01:23:04,VALID,1002.57,VALID,0,VALID,92.3018,VALID,0,VALID,23.9177,VALID,11,VALID,0.531641,
2009-08-28, 01:24:04,VALID,1002.58,VALID,0,VALID,92.4239,VALID,0,VALID,23.8982,VALID,11,VALID,0.518359,
2009-08-28, 01:25:04,VALID,1002.56,VALID,0,VALID,92.4544,VALID,0,VALID,23.838,VALID,11,VALID,0.503906,
2009-08-28, 01:26:04,VALID,1002.58,VALID,0,VALID,92.5917,VALID,0,VALID,23.838,VALID,11,VALID,0.578516,
2009-08-28, 01:27:04,VALID,1002.55,VALID,0,VALID,92.6604,VALID,0,VALID,23.8203,VALID,11,VALID,0.500391,
2009-08-28, 01:28:04,VALID,1002.56,VALID,0,VALID,92.7748,VALID,0,VALID,23.7601,VALID,11,VALID,0.412891,
2009-08-28, 01:29:04,VALID,1002.55,VALID,0,VALID,92.9426,VALID,0,VALID,23.7619,VALID,11,VALID,0.332812,
2009-08-28, 01:30:04,VALID,1002.52,VALID,0,VALID,93.0723,VALID,0,VALID,23.7212,VALID,11,VALID,0.408203,
2009-08-28, 01:31:04,VALID,1002.53,VALID,0,VALID,93.1868,VALID,0,VALID,23.723,VALID,11,VALID,0.479688,
2009-08-28, 01:32:04,VALID,1002.52,VALID,0,VALID,93.3546,VALID,0,VALID,23.723,VALID,11,VALID,0.405469,
2009-08-28, 01:33:04,VALID,1002.51,VALID,0,VALID,93.4309,VALID,0,VALID,23.7017,VALID,11,VALID,0.183984,
2009-08-28, 01:34:04,VALID,1002.5,VALID,0,VALID,93.5224,VALID,0,VALID,23.7035,VALID,11,VALID,0,
2009-08-28, 01:35:04,VALID,1002.48,VALID,0,VALID,93.5301,VALID,0,VALID,23.6628,VALID,11,VALID,0,
2009-08-28, 01:36:04,VALID,1002.46,VALID,0,VALID,93.6674,VALID,0,VALID,23.6841,VALID,11,VALID,0,
2009-08-28, 01:37:04,VALID,1002.43,VALID,0,VALID,93.7284,VALID,0,VALID,23.6841,VALID,11,VALID,0,
2009-08-28, 01:38:04,VALID,1002.43,VALID,0,VALID,93.7818,VALID,0,VALID,23.6628,VALID,11,VALID,0,
2009-08-28, 01:39:04,VALID,1002.45,VALID,0,VALID,93.8657,VALID,0,VALID,23.6841,VALID,11,VALID,0,
2009-08-28, 01:40:04,VALID,1002.43,VALID,0,VALID,93.8886,VALID,0,VALID,23.6841,VALID,11,VALID,0,
2009-08-28, 01:41:04,VALID,1002.44,VALID,0,VALID,93.9191,VALID,0,VALID,23.6841,VALID,11,VALID,0,
2009-08-28, 01:42:04,VALID,1002.45,VALID,0,VALID,93.9573,VALID,0,VALID,23.6646,VALID,11,VALID,0,
2009-08-28, 01:43:04,VALID,1002.45,VALID,0,VALID,93.9191,VALID,0,VALID,23.6434,VALID,11,VALID,0,
2009-08-28, 01:44:04,VALID,1002.4,VALID,0,VALID,93.9268,VALID,0,VALID,23.6646,VALID,11,VALID,0,
2009-08-28, 01:45:04,VALID,1002.4,VALID,0,VALID,93.9191,VALID,0,VALID,23.6434,VALID,11,VALID,0,
2009-08-28, 01:46:04,VALID,1002.37,VALID,0,VALID,93.9802,VALID,0,VALID,23.6257,VALID,11,VALID,0,
2009-08-28, 01:47:04,VALID,1002.34,VALID,0,VALID,94.0946,VALID,0,VALID,23.6646,VALID,11,VALID,0,
2009-08-28, 01:48:04,VALID,1002.3,VALID,0,VALID,94.0565,VALID,0,VALID,23.6239,VALID,11,VALID,0,
2009-08-28, 01:49:04,VALID,1002.32,VALID,0,VALID,94.0259,VALID,0,VALID,23.6044,VALID,11,VALID,0,
2009-08-28, 01:50:04,VALID,1002.3,VALID,0,VALID,94.087,VALID,0,VALID,23.6452,VALID,11,VALID,0,
2009-08-28, 01:51:04,VALID,1002.29,VALID,0,VALID,94.0717,VALID,0,VALID,23.6044,VALID,11,VALID,0,
2009-08-28, 01:52:04,VALID,1002.31,VALID,0,VALID,94.0183,VALID,0,VALID,23.6062,VALID,11,VALID,0,
2009-08-28, 01:53:04,VALID,1002.29,VALID,0,VALID,94.0641,VALID,0,VALID,23.6062,VALID,11,VALID,0,
2009-08-28, 01:54:04,VALID,1002.3,VALID,0,VALID,94.1175,VALID,0,VALID,23.585,VALID,11,VALID,0,
2009-08-28, 01:55:04,VALID,1002.31,VALID,0,VALID,94.1862,VALID,0,VALID,23.6062,VALID,11,VALID,0,
2009-08-28, 01:56:04,VALID,1002.28,VALID,0,VALID,94.2624,VALID,0,VALID,23.6062,VALID,11,VALID,0,
2009-08-28, 01:57:04,VALID,1002.29,VALID,0,VALID,94.2548,VALID,0,VALID,23.585,VALID,11,VALID,0,
2009-08-28, 01:58:04,VALID,1002.29,VALID,0,VALID,94.3311,VALID,0,VALID,23.585,VALID,11,VALID,0,
2009-08-28, 01:59:04,VALID,1002.26,VALID,0,VALID,94.3845,VALID,0,VALID,23.6062,VALID,11,VALID,0,
2009-08-28, 02:00:04,VALID,1002.27,VALID,0,VALID,94.415,VALID,0,VALID,23.6062,VALID,11,VALID,0,
2009-08-28, 02:01:04,VALID,1002.21,VALID,0,VALID,94.4303,VALID,0,VALID,23.6257,VALID,10,VALID,0.00234375,
2009-08-28, 02:02:04,VALID,1002.21,VALID,0,VALID,94.4455,VALID,0,VALID,23.6062,VALID,347,VALID,0.528125,
2009-08-28, 02:03:04,VALID,1002.2,VALID,0,VALID,94.4837,VALID,0,VALID,23.6257,VALID,348,VALID,0.560938,
2009-08-28, 02:04:04,VALID,1002.18,VALID,0,VALID,94.4837,VALID,0,VALID,23.6062,VALID,352,VALID,0.552344,
2009-08-28, 02:05:04,VALID,1002.14,VALID,0,VALID,94.5066,VALID,0,VALID,23.6062,VALID,352,VALID,0.353125,
2009-08-28, 02:06:04,VALID,1002.14,VALID,0,VALID,94.56,VALID,0,VALID,23.6646,VALID,352,VALID,0.527734,
2009-08-28, 02:07:04,VALID,1002.11,VALID,0,VALID,94.5295,VALID,0,VALID,23.7035,VALID,352,VALID,0.521875,
2009-08-28, 02:08:04,VALID,1002.12,VALID,0,VALID,94.4684,VALID,0,VALID,23.723,VALID,354,VALID,0.589844,
2009-08-28, 02:09:04,VALID,1002.09,VALID,0,VALID,94.4303,VALID,0,VALID,23.7619,VALID,354,VALID,0.338672,
2009-08-28, 02:10:04,VALID,1002.09,VALID,0,VALID,94.3235,VALID,0,VALID,23.7796,VALID,354,VALID,0.523047,
2009-08-28, 02:11:04,VALID,1002.07,VALID,0,VALID,94.1328,VALID,0,VALID,23.8009,VALID,350,VALID,0.502344,
2009-08-28, 02:12:04,VALID,1002.08,VALID,0,VALID,94.0031,VALID,0,VALID,23.8593,VALID,351,VALID,0.295703,
2009-08-28, 02:13:04,VALID,1002.09,VALID,0,VALID,93.8429,VALID,0,VALID,23.8982,VALID,351,VALID,0.3125,
2009-08-28, 02:14:04,VALID,1002.12,VALID,0,VALID,93.6674,VALID,0,VALID,23.8982,VALID,351,VALID,0.310547,
2009-08-28, 02:15:04,VALID,1002.16,VALID,0,VALID,93.4996,VALID,0,VALID,23.9371,VALID,338,VALID,0.371484,
2009-08-28, 02:16:04,VALID,1002.18,VALID,0,VALID,93.2859,VALID,0,VALID,23.9761,VALID,314,VALID,0.242188,
2009-08-28, 02:17:04,VALID,1002.22,VALID,0,VALID,93.0342,VALID,0,VALID,24.015,VALID,314,VALID,0.0386719,
2009-08-28, 02:18:04,VALID,1002.23,VALID,0,VALID,92.8435,VALID,0,VALID,24.015,VALID,314,VALID,0,
2009-08-28, 02:19:04,VALID,1002.28,VALID,0,VALID,92.729,VALID,0,VALID,24.015,VALID,314,VALID,0,
2009-08-28, 02:20:04,VALID,1002.29,VALID,0,VALID,92.6375,VALID,0,VALID,24.0539,VALID,314,VALID,0,
2009-08-28, 02:21:04,VALID,1002.31,VALID,0,VALID,92.4544,VALID,0,VALID,24.015,VALID,314,VALID,0,
2009-08-28, 02:22:04,VALID,1002.34,VALID,0,VALID,92.4697,VALID,0,VALID,24.0345,VALID,333,VALID,0.120703,
2009-08-28, 02:23:04,VALID,1002.3,VALID,0,VALID,92.3323,VALID,0,VALID,24.0539,VALID,334,VALID,0,
2009-08-28, 02:24:04,VALID,1002.28,VALID,0,VALID,92.195,VALID,0,VALID,24.0345,VALID,334,VALID,0,
2009-08-28, 02:25:04,VALID,1002.29,VALID,0,VALID,92.195,VALID,0,VALID,23.9955,VALID,335,VALID,0.4625,
2009-08-28, 02:26:04,VALID,1002.28,VALID,0,VALID,92.1569,VALID,0,VALID,23.9955,VALID,335,VALID,0.38125,
2009-08-28, 02:27:04,VALID,1002.27,VALID,0,VALID,92.0806,VALID,0,VALID,23.9177,VALID,335,VALID,0.310547,
2009-08-28, 02:28:04,VALID,1002.24,VALID,0,VALID,92.2789,VALID,0,VALID,23.8787,VALID,335,VALID,0.443359,
2009-08-28, 02:29:04,VALID,1002.23,VALID,0,VALID,92.5078,VALID,0,VALID,23.8593,VALID,336,VALID,0.514453,
2009-08-28, 02:30:04,VALID,1002.23,VALID,0,VALID,92.6451,VALID,0,VALID,23.8398,VALID,336,VALID,0.259766,
2009-08-28, 02:31:04,VALID,1002.22,VALID,0,VALID,92.8053,VALID,0,VALID,23.8185,VALID,340,VALID,0.415234,
2009-08-28, 02:32:04,VALID,1002.21,VALID,0,VALID,92.8282,VALID,0,VALID,23.8009,VALID,340,VALID,0.334766,
2009-08-28, 02:33:04,VALID,1002.24,VALID,0,VALID,93.08,VALID,0,VALID,23.8203,VALID,295,VALID,0.494922,
2009-08-28, 02:34:04,VALID,1002.22,VALID,0,VALID,93.0876,VALID,0,VALID,23.8593,VALID,330,VALID,0.53125,
2009-08-28, 02:35:04,VALID,1002.18,VALID,0,VALID,92.8664,VALID,0,VALID,23.838,VALID,330,VALID,0.275781,
2009-08-28, 02:36:04,VALID,1002.18,VALID,0,VALID,92.9503,VALID,0,VALID,23.8593,VALID,330,VALID,0.137109,
2009-08-28, 02:37:04,VALID,1002.16,VALID,0,VALID,92.8969,VALID,0,VALID,23.8787,VALID,330,VALID,0.0636719,
2009-08-28, 02:38:04,VALID,1002.15,VALID,0,VALID,92.8511,VALID,0,VALID,23.8805,VALID,330,VALID,0.301562,
2009-08-28, 02:39:04,VALID,1002.15,VALID,0,VALID,92.6604,VALID,0,VALID,23.8203,VALID,330,VALID,0.107031,
2009-08-28, 02:40:04,VALID,1002.12,VALID,0,VALID,92.6833,VALID,0,VALID,23.7814,VALID,330,VALID,0.0617188,
2009-08-28, 02:41:04,VALID,1002.15,VALID,0,VALID,92.6909,VALID,0,VALID,23.7619,VALID,330,VALID,0,
2009-08-28, 02:42:04,VALID,1002.15,VALID,0,VALID,92.7977,VALID,0,VALID,23.723,VALID,330,VALID,0,
2009-08-28, 02:43:04,VALID,1002.14,VALID,0,VALID,92.9426,VALID,0,VALID,23.7425,VALID,330,VALID,0,
2009-08-28, 02:44:04,VALID,1002.16,VALID,0,VALID,92.8664,VALID,0,VALID,23.7035,VALID,334,VALID,0.485547,
2009-08-28, 02:45:04,VALID,1002.14,VALID,0,VALID,92.9732,VALID,0,VALID,23.6841,VALID,335,VALID,0.065625,
2009-08-28, 02:46:04,VALID,1002.14,VALID,0,VALID,93.0952,VALID,0,VALID,23.6434,VALID,335,VALID,0,
2009-08-28, 02:47:04,VALID,1002.19,VALID,0,VALID,93.1791,VALID,0,VALID,23.6469,VALID,335,VALID,0,
2009-08-28, 02:48:04,VALID,1002.2,VALID,0,VALID,93.3012,VALID,0,VALID,23.6044,VALID,335,VALID,0,
2009-08-28, 02:49:04,VALID,1002.2,VALID,0,VALID,93.4309,VALID,0,VALID,23.6469,VALID,335,VALID,0,
2009-08-28, 02:50:04,VALID,1002.17,VALID,0,VALID,93.4843,VALID,0,VALID,23.6062,VALID,335,VALID,0,
2009-08-28, 02:51:04,VALID,1002.18,VALID,0,VALID,93.5301,VALID,0,VALID,23.5868,VALID,335,VALID,0,
2009-08-28, 02:52:04,VALID,1002.18,VALID,0,VALID,93.5835,VALID,0,VALID,23.5673,VALID,335,VALID,0,
2009-08-28, 02:53:04,VALID,1002.19,VALID,0,VALID,93.6064,VALID,0,VALID,23.5478,VALID,335,VALID,0,
2009-08-28, 02:54:04,VALID,1002.2,VALID,0,VALID,93.7055,VALID,0,VALID,23.5496,VALID,335,VALID,0,
2009-08-28, 02:55:04,VALID,1002.2,VALID,0,VALID,93.7513,VALID,0,VALID,23.5302,VALID,335,VALID,0,
2009-08-28, 02:56:04,VALID,1002.2,VALID,0,VALID,93.7818,VALID,0,VALID,23.5089,VALID,335,VALID,0,
2009-08-28, 02:57:04,VALID,1002.22,VALID,0,VALID,93.7742,VALID,0,VALID,23.4894,VALID,335,VALID,0,
2009-08-28, 02:58:04,VALID,1002.24,VALID,0,VALID,93.82,VALID,0,VALID,23.4505,VALID,335,VALID,0,
2009-08-28, 02:59:04,VALID,1002.25,VALID,0,VALID,93.881,VALID,0,VALID,23.47,VALID,335,VALID,0,
2009-08-28, 03:00:04,VALID,1002.24,VALID,0,VALID,94.0259,VALID,0,VALID,23.4894,VALID,335,VALID,0,
2009-08-28, 03:01:04,VALID,1002.25,VALID,0,VALID,94.0336,VALID,0,VALID,23.47,VALID,335,VALID,0,
2009-08-28, 03:02:04,VALID,1002.25,VALID,0,VALID,94.1022,VALID,0,VALID,23.4505,VALID,335,VALID,0,
2009-08-28, 03:03:04,VALID,1002.25,VALID,0,VALID,94.1938,VALID,0,VALID,23.4505,VALID,335,VALID,0,
2009-08-28, 03:04:04,VALID,1002.28,VALID,0,VALID,94.2396,VALID,0,VALID,23.47,VALID,335,VALID,0.591797,
2009-08-28, 03:05:04,VALID,1002.28,VALID,0,VALID,94.2167,VALID,0,VALID,23.4505,VALID,335,VALID,0.369141,
2009-08-28, 03:06:04,VALID,1002.32,VALID,0,VALID,94.3311,VALID,0,VALID,23.4894,VALID,335,VALID,0,
2009-08-28, 03:07:04,VALID,1002.31,VALID,0,VALID,94.3845,VALID,0,VALID,23.4894,VALID,341,VALID,0,
2009-08-28, 03:08:04,VALID,1002.36,VALID,0,VALID,94.3998,VALID,0,VALID,23.4894,VALID,341,VALID,0,
2009-08-28, 03:09:04,VALID,1002.34,VALID,0,VALID,94.4227,VALID,0,VALID,23.4894,VALID,341,VALID,0,
2009-08-28, 03:10:04,VALID,1002.38,VALID,0,VALID,94.4837,VALID,0.100563,VALID,23.4859,VALID,341,VALID,0,
2009-08-28, 03:11:04,VALID,1002.38,VALID,0,VALID,94.5066,VALID,0.100563,VALID,23.4877,VALID,341,VALID,0,
2009-08-28, 03:12:04,VALID,1002.36,VALID,0,VALID,94.5371,VALID,0,VALID,23.5071,VALID,341,VALID,0,
2009-08-28, 03:13:04,VALID,1002.37,VALID,0,VALID,94.5752,VALID,0,VALID,23.5284,VALID,341,VALID,0,
2009-08-28, 03:14:04,VALID,1002.35,VALID,0,VALID,94.5829,VALID,0,VALID,23.5089,VALID,341,VALID,0,
2009-08-28, 03:15:04,VALID,1002.35,VALID,0,VALID,94.5829,VALID,0,VALID,23.5089,VALID,341,VALID,0,
2009-08-28, 03:16:04,VALID,1002.33,VALID,0,VALID,94.5905,VALID,0,VALID,23.4894,VALID,341,VALID,0,
2009-08-28, 03:17:04,VALID,1002.32,VALID,0,VALID,94.6057,VALID,0,VALID,23.5089,VALID,341,VALID,0,
2009-08-28, 03:18:04,VALID,1002.34,VALID,0,VALID,94.5752,VALID,0,VALID,23.47,VALID,341,VALID,0,
2009-08-28, 03:19:04,VALID,1002.32,VALID,0,VALID,94.5829,VALID,0,VALID,23.4505,VALID,341,VALID,0,
2009-08-28, 03:20:04,VALID,1002.33,VALID,0,VALID,94.5371,VALID,0,VALID,23.4505,VALID,341,VALID,0,
2009-08-28, 03:21:04,VALID,1002.36,VALID,0,VALID,94.4837,VALID,0,VALID,23.4134,VALID,341,VALID,0,
2009-08-28, 03:22:04,VALID,1002.34,VALID,0,VALID,94.4684,VALID,0,VALID,23.3514,VALID,341,VALID,0,
2009-08-28, 03:23:04,VALID,1002.35,VALID,0,VALID,94.5752,VALID,0,VALID,23.4116,VALID,341,VALID,0,
2009-08-28, 03:24:04,VALID,1002.36,VALID,0,VALID,94.6973,VALID,0,VALID,23.47,VALID,341,VALID,0,
2009-08-28, 03:25:04,VALID,1002.35,VALID,0,VALID,94.7888,VALID,0,VALID,23.5089,VALID,341,VALID,0,
2009-08-28, 03:26:04,VALID,1002.36,VALID,0,VALID,94.827,VALID,0,VALID,23.5089,VALID,341,VALID,0,
2009-08-28, 03:27:04,VALID,1002.38,VALID,0,VALID,94.8346,VALID,0,VALID,23.5107,VALID,341,VALID,0,
2009-08-28, 03:28:04,VALID,1002.37,VALID,0,VALID,94.8117,VALID,0,VALID,23.4877,VALID,341,VALID,0,
2009-08-28, 03:29:04,VALID,1002.41,VALID,0,VALID,94.8117,VALID,0.100563,VALID,23.447,VALID,341,VALID,0,
2009-08-28, 03:30:04,VALID,1002.41,VALID,0,VALID,94.8041,VALID,0,VALID,23.4275,VALID,341,VALID,0,
2009-08-28, 03:31:04,VALID,1002.41,VALID,0,VALID,94.8194,VALID,0.100563,VALID,23.4682,VALID,348,VALID,0,
2009-08-28, 03:32:04,VALID,1002.41,VALID,0,VALID,94.827,VALID,0.100563,VALID,23.4275,VALID,348,VALID,0,
2009-08-28, 03:33:04,VALID,1002.39,VALID,0,VALID,94.8194,VALID,0.100563,VALID,23.4275,VALID,348,VALID,0,
2009-08-28, 03:34:04,VALID,1002.41,VALID,0,VALID,94.8499,VALID,0.100563,VALID,23.4664,VALID,348,VALID,0,
2009-08-28, 03:35:04,VALID,1002.39,VALID,0,VALID,94.8804,VALID,0,VALID,23.4664,VALID,348,VALID,0,
2009-08-28, 03:36:04,VALID,1002.39,VALID,0,VALID,94.9185,VALID,0.100563,VALID,23.4877,VALID,348,VALID,0,
2009-08-28, 03:37:04,VALID,1002.37,VALID,0,VALID,94.9567,VALID,0.100563,VALID,23.5053,VALID,348,VALID,0,
2009-08-28, 03:38:04,VALID,1002.39,VALID,0,VALID,95.0482,VALID,0.100563,VALID,23.5637,VALID,348,VALID,0,
2009-08-28, 03:39:04,VALID,1002.37,VALID,0,VALID,95.0635,VALID,0,VALID,23.585,VALID,348,VALID,0,
2009-08-28, 03:40:04,VALID,1002.38,VALID,0,VALID,95.1016,VALID,0,VALID,23.6239,VALID,348,VALID,0,
2009-08-28, 03:41:04,VALID,1002.36,VALID,0,VALID,95.1245,VALID,0.100563,VALID,23.6628,VALID,342,VALID,0,
2009-08-28, 03:42:04,VALID,1002.37,VALID,0,VALID,95.1474,VALID,0.100563,VALID,23.6628,VALID,343,VALID,0,
2009-08-28, 03:43:04,VALID,1002.38,VALID,0,VALID,95.1093,VALID,0,VALID,23.6257,VALID,343,VALID,0,
2009-08-28, 03:44:04,VALID,1002.43,VALID,0,VALID,95.0864,VALID,0,VALID,23.6239,VALID,343,VALID,0,
2009-08-28, 03:45:04,VALID,1002.4,VALID,0,VALID,95.0635,VALID,0,VALID,23.6646,VALID,343,VALID,0,
2009-08-28, 03:46:04,VALID,1002.42,VALID,0,VALID,95.0558,VALID,0,VALID,23.6044,VALID,344,VALID,0,
2009-08-28, 03:47:04,VALID,1002.42,VALID,0,VALID,95.033,VALID,0,VALID,23.6044,VALID,344,VALID,0,
2009-08-28, 03:48:04,VALID,1002.45,VALID,0,VALID,95.0406,VALID,0,VALID,23.6257,VALID,344,VALID,0,
2009-08-28, 03:49:04,VALID,1002.39,VALID,0,VALID,95.033,VALID,0,VALID,23.6044,VALID,344,VALID,0,
2009-08-28, 03:50:04,VALID,1002.38,VALID,0,VALID,95.0177,VALID,0,VALID,23.6044,VALID,344,VALID,0,
2009-08-28, 03:51:04,VALID,1002.35,VALID,0,VALID,95.0177,VALID,0,VALID,23.585,VALID,344,VALID,0,
2009-08-28, 03:52:04,VALID,1002.33,VALID,0,VALID,95.0406,VALID,0,VALID,23.6062,VALID,344,VALID,0,